Kremmling, CO

12:07 AM MDT on April 30, 2017 (GMT -0600)
Kremmling

Weather History for K20V - February, 2012

Change the Weather History Date:

Sunday, February 19, 2012

  Actual Average Record
Temperature  
Mean Temperature 24 °F -  
Max Temperature 37 °F - 50 °F (2015)
Min Temperature 10 °F - -14 °F (2013)
Degree Days  
Heating Degree Days 42    
Month to date heating degree days  
Cooling Degree Days 0    
Month to date cooling degree days  
Moisture  
Dew Point 9 °F    
Average Humidity 58    
Maximum Humidity 79    
Minimum Humidity 32    
Precipitation  
Precipitation 0.00 in - 0.04 in (2006)
Sea Level Pressure  
Sea Level Pressure 29.74 in    
Wind  
Wind Speed 1 mph (SW)    
Max Wind Speed 14 mph    
Max Gust Speed 18 mph    
Visibility 10 miles    
Events      
T = Trace of Precipitation, MM = Missing Value Source: NWS Daily Summary

Daily Weather History Graph

Daily Weather History Graph

Search for Another Location

Airport or City:

Trip Planner

Search our weather history database for the weather conditions in past years. The results will help you decide how hot, cold, wet, or windy it might be!

Date:

Astronomy

Feb. 19, 2012 Rise Set
Actual Time 6:53 AM MST 5:45 PM MST
Civil Twilight 6:26 AM MST 6:13 PM MST
Nautical Twilight 5:54 AM MST 6:44 PM MST
Astronomical Twilight 5:23 AM MST 7:16 PM MST
Moon 5:16 AM MST (2/19) 3:49 PM MST (2/19)
Length of Visible Light 11h 46m
Length of Day
10h 51m
Waning Crescent, 5% of the Moon is Illuminated
Feb 19
Waning Crescent
Feb 21
New
Feb 29
First Quarter
Mar 8
Full
Mar 14
Last Quarter

Hourly Weather History & Observations

Time (MST) Temp. Windchill Dew Point Humidity Pressure Visibility Wind Dir Wind Speed Gust Speed Precip Events Conditions
12:19 AM 14.0 °F - 6.8 °F 73% 29.93 in 10.0 mi Calm Calm - N/A   Clear
12:39 AM 14.0 °F - 5.0 °F 67% 29.93 in 10.0 mi Calm Calm - N/A   Clear
12:59 AM 14.0 °F - 6.8 °F 73% 29.92 in 10.0 mi Calm Calm - N/A   Clear
1:19 AM 12.2 °F - 6.8 °F 79% 29.92 in 10.0 mi Calm Calm - N/A   Clear
1:39 AM 14.0 °F - 8.6 °F 79% 29.92 in 10.0 mi Calm Calm - N/A   Clear
1:58 AM 12.2 °F - 6.8 °F 79% 29.92 in 10.0 mi Calm Calm - N/A   Clear
2:19 AM 12.2 °F - 5.0 °F 73% 29.92 in 10.0 mi Calm Calm - N/A   Clear
2:39 AM 10.4 °F - 3.2 °F 73% 29.90 in 10.0 mi Calm Calm - N/A   Clear
2:59 AM 10.4 °F - 3.2 °F 73% 29.89 in 10.0 mi Calm Calm - N/A   Clear
3:19 AM 10.4 °F - 3.2 °F 73% 29.89 in 10.0 mi Calm Calm - N/A   Clear
3:59 AM 10.4 °F - 3.2 °F 73% 29.88 in 10.0 mi Calm Calm - N/A   Clear
4:19 AM 10.4 °F - 5.0 °F 79% 29.88 in 10.0 mi Calm Calm - N/A   Clear
4:39 AM 10.4 °F - 5.0 °F 79% 29.88 in 10.0 mi Calm Calm - N/A   Clear
4:59 AM 10.4 °F - 3.2 °F 73% 29.87 in 10.0 mi Calm Calm - N/A   Clear
5:19 AM 10.4 °F - 3.2 °F 73% 29.87 in 10.0 mi Calm Calm - N/A   Clear
5:39 AM 10.4 °F - 5.0 °F 79% 29.86 in 10.0 mi Calm Calm - N/A   Clear
5:59 AM 10.4 °F - 3.2 °F 73% 29.85 in 10.0 mi Calm Calm - N/A   Clear
6:19 AM 10.4 °F - 3.2 °F 73% 29.85 in 10.0 mi Calm Calm - N/A   Clear
6:38 AM 10.4 °F - 3.2 °F 73% 29.85 in 10.0 mi Calm Calm - N/A   Clear
6:59 AM 10.4 °F - 3.2 °F 73% 29.84 in 10.0 mi Calm Calm - N/A   Clear
7:19 AM 10.4 °F - 3.2 °F 73% 29.84 in 10.0 mi Calm Calm - N/A   Clear
7:39 AM 12.2 °F - 5.0 °F 73% 29.83 in 10.0 mi Calm Calm - N/A   Clear
7:58 AM 12.2 °F - 3.2 °F 67% 29.83 in 10.0 mi Calm Calm - N/A   Clear
8:18 AM 14.0 °F - 6.8 °F 73% 29.82 in 10.0 mi Calm Calm - N/A   Clear
8:39 AM 14.0 °F - 5.0 °F 67% 29.82 in 10.0 mi Calm Calm - N/A   Clear
8:59 AM 17.6 °F - 6.8 °F 63% 29.80 in 10.0 mi Calm Calm - N/A   Clear
9:19 AM 19.4 °F - 6.8 °F 58% 29.79 in 10.0 mi Calm Calm - N/A   Clear
9:39 AM 19.4 °F - 8.6 °F 63% 29.78 in 10.0 mi Calm Calm - N/A   Clear
9:59 AM 19.4 °F - 5.0 °F 54% 29.78 in 10.0 mi Calm Calm - N/A   Clear
10:19 AM 21.2 °F - 5.0 °F 50% 29.76 in 10.0 mi Calm Calm - N/A   Clear
10:39 AM 24.8 °F - 5.0 °F 43% 29.75 in 10.0 mi Calm Calm - N/A   Clear
11:19 AM 28.4 °F - 5.0 °F 37% 29.72 in 10.0 mi Calm Calm - N/A   Clear
11:38 AM 30.2 °F - 8.6 °F 40% 29.70 in 10.0 mi Calm Calm - N/A   Clear
11:59 AM 32.0 °F - 5.0 °F 32% 29.69 in 10.0 mi Calm Calm - N/A   Clear
12:18 PM 33.8 °F - 6.8 °F 32% 29.67 in 10.0 mi Calm Calm - N/A   Clear
12:39 PM 33.8 °F - 8.6 °F 35% 29.65 in 10.0 mi Calm Calm - N/A   Clear
12:59 PM 35.6 °F 28.6 °F 12.2 °F 38% 29.64 in 10.0 mi WSW 9.2 mph - N/A   Clear
1:19 PM 33.8 °F - 10.4 °F 38% 29.63 in 10.0 mi Calm Calm - N/A   Clear
1:39 PM 37.4 °F 33.8 °F 12.2 °F 36% 29.61 in 10.0 mi NE 4.6 mph - N/A   Clear
1:59 PM 37.4 °F 29.8 °F 14.0 °F 38% 29.61 in 10.0 mi West 11.5 mph - N/A   Clear
2:19 PM 37.4 °F 28.9 °F 14.0 °F 38% 29.61 in 10.0 mi WSW 13.8 mph 18.4 mph N/A   Mostly Cloudy
2:39 PM 37.4 °F 28.9 °F 14.0 °F 38% 29.60 in 10.0 mi West 13.8 mph 17.3 mph N/A   Scattered Clouds
2:59 PM 35.6 °F 28.6 °F 14.0 °F 41% 29.60 in 10.0 mi West 9.2 mph - N/A   Clear
3:19 PM 35.6 °F 29.9 °F 14.0 °F 41% 29.59 in 10.0 mi West 6.9 mph - N/A   Clear
3:39 PM 35.6 °F 30.7 °F 14.0 °F 41% 29.59 in 10.0 mi WSW 5.8 mph - N/A   Clear
3:59 PM 35.6 °F 31.7 °F 14.0 °F 41% 29.58 in 10.0 mi WSW 4.6 mph - N/A   Scattered Clouds
4:18 PM 35.6 °F 29.2 °F 14.0 °F 41% 29.59 in 10.0 mi WSW 8.1 mph - N/A   Scattered Clouds
4:39 PM 33.8 °F 25.8 °F 17.6 °F 52% 29.59 in 10.0 mi WSW 10.4 mph 17.3 mph N/A   Scattered Clouds
4:59 PM 33.8 °F 29.6 °F 17.6 °F 52% 29.59 in 10.0 mi SSE 4.6 mph - N/A   Scattered Clouds
5:39 PM 32.0 °F 23.6 °F 17.6 °F 55% 29.58 in 10.0 mi SSE 10.4 mph - N/A   Scattered Clouds
5:59 PM 32.0 °F 24.8 °F 17.6 °F 55% 29.58 in 10.0 mi SSE 8.1 mph - N/A   Scattered Clouds
6:19 PM 32.0 °F 26.4 °F 17.6 °F 55% 29.58 in 10.0 mi ESE 5.8 mph - N/A   Scattered Clouds
6:39 PM 30.2 °F 25.4 °F 17.6 °F 60% 29.58 in 10.0 mi East 4.6 mph - N/A   Mostly Cloudy
6:59 PM 30.2 °F - 17.6 °F 60% 29.57 in 10.0 mi Calm Calm - N/A   Overcast
7:19 PM 32.0 °F 28.7 °F 15.8 °F 51% 29.57 in 10.0 mi SE 3.5 mph - N/A   Overcast
7:39 PM 32.0 °F 25.6 °F 15.8 °F 51% 29.57 in 10.0 mi SW 6.9 mph - N/A   Overcast
7:59 PM 32.0 °F 28.7 °F 17.6 °F 55% 29.57 in 10.0 mi West 3.5 mph - N/A   Overcast
8:19 PM 32.0 °F 24.8 °F 17.6 °F 55% 29.57 in 10.0 mi NW 8.1 mph - N/A   Overcast
8:39 PM 24.8 °F 12.9 °F 17.6 °F 74% 29.59 in 2.0 mi NNW 13.8 mph 19.6 mph N/A Snow Light Snow
8:59 PM 23.0 °F 10.1 °F 14.0 °F 68% 29.60 in 2.0 mi NNW 15.0 mph 19.6 mph N/A Snow Light Snow
9:19 PM 23.0 °F 11.1 °F 10.4 °F 59% 29.63 in 5.0 mi NW 12.7 mph 20.7 mph N/A Snow Light Snow
9:39 PM 23.0 °F 15.8 °F 10.4 °F 59% 29.66 in 7.0 mi WNW 5.8 mph 17.3 mph N/A Snow Light Snow
9:59 PM 21.2 °F - 8.6 °F 58% 29.66 in 5.0 mi Calm Calm - N/A Snow Light Snow
10:19 PM 21.2 °F - 5.0 °F 50% 29.66 in 10.0 mi Calm Calm - N/A   Overcast
10:39 PM 21.2 °F 14.9 °F 10.4 °F 63% 29.68 in 10.0 mi ENE 4.6 mph - N/A   Overcast
10:59 PM 21.2 °F 14.9 °F 10.4 °F 63% 29.69 in 10.0 mi NNE 4.6 mph - N/A   Overcast
11:19 PM 21.2 °F 14.9 °F 10.4 °F 63% 29.69 in 10.0 mi East 4.6 mph - N/A   Overcast
11:38 PM 19.4 °F - 8.6 °F 63% 29.70 in 10.0 mi Calm Calm - N/A   Overcast
11:59 PM 19.4 °F - 12.2 °F 74% 29.71 in 10.0 mi Calm Calm - N/A   Overcast